Tracking 18186 objects as of 29-March-2017
HD Live streaming from Space Station
objects crossing your sky now

OPS 8314 (2)

Track OPS 8314 (2) now!
10-day predictions
OPS 8314 (2) is classified as:


NORAD ID: 6822
Int'l Code: 1972-079C
Perigee: 1,425.5 km
Apogee: 1,471.8 km
Inclination: 95.6 °
Period: 114.7 minutes
Semi major axis: 7819 km
RCS: 0.3198 m2 (medium)
Launch date: October 10, 1972
Source: United States (US)
Launch site: AIR FORCE WESTERN TEST RANGE (AFWTR)
Your satellite tracking list
Your tracking list is empty





NASA's NSSDC Master Catalog

Two Line Element Set (TLE):
1  6822U 72079C   17087.92217142 -.00000017 +00000-0 -25470-4 0  9996
2  6822 095.6469 211.5280 0029615 006.8378 106.4043 12.55514901037149
Source of the keplerian elements: AFSPC